RYR96E EGCC-LFMN

Flight info

Callsign RYR96E
Flight time 1h 52m
Altitude 35000
Route LISTO P18 TELBA L151 MID UL612 RESMI UM728 KETEX DCT KOTIS DCT KUKOR DCT UTUVA DCT LERGA DCT LIQID DCT LATAM DCT TUNUR DCT NISAR
Aircraft B738/M-SDE2E3FGHIRWXY/LB1

Departure

Time 2026-04-30 18:07
Airport Manchester Airport (EGCC)

Arrival

Time 2026-04-30 20:00
Airport Nice-Côte d'Azur Airport (LFMN)
Time Latitude Longitude Altitude Speed Heading
2026-04-30 17:39 53.35951 -2.27135 232 ft 0 kts 89°
2026-04-30 17:54 53.35948 -2.27211 235 ft 4 kts 97°
2026-04-30 17:55 53.35983 -2.27242 234 ft 2 kts 179°
2026-04-30 17:59 53.35801 -2.27296 232 ft 9 kts 230°
2026-04-30 18:00 53.35540 -2.27785 232 ft 8 kts 224°
2026-04-30 18:00 53.35511 -2.27834 232 ft 9 kts 224°
2026-04-30 18:01 53.35367 -2.28065 232 ft 15 kts 224°
2026-04-30 18:02 53.35172 -2.28423 232 ft 13 kts 231°
2026-04-30 18:02 53.34990 -2.28778 232 ft 14 kts 231°
2026-04-30 18:03 53.34805 -2.29068 234 ft 9 kts 195°
2026-04-30 18:04 53.34670 -2.28991 232 ft 6 kts 135°
2026-04-30 18:05 53.34674 -2.28946 232 ft 0 kts 52°
2026-04-30 18:06 53.35497 -2.27226 244 ft 156 kts 54°
2026-04-30 18:07 53.37569 -2.21450 2618 ft 179 kts 99°
2026-04-30 18:08 53.34454 -2.16913 3700 ft 239 kts 168°
2026-04-30 18:09 53.27651 -2.17762 6314 ft 250 kts 184°
2026-04-30 18:10 53.20556 -2.18924 7184 ft 261 kts 184°
2026-04-30 18:11 53.13325 -2.20051 9001 ft 262 kts 184°
2026-04-30 18:11 53.07690 -2.20926 10759 ft 293 kts 184°
2026-04-30 18:12 53.00917 -2.21976 11460 ft 350 kts 184°
2026-04-30 18:13 52.96023 -2.22745 12821 ft 355 kts 184°
2026-04-30 18:13 52.88572 -2.23912 14780 ft 365 kts 183°
2026-04-30 18:14 52.83492 -2.25170 16055 ft 374 kts 191°
2026-04-30 18:15 52.75806 -2.28273 17958 ft 384 kts 191°
2026-04-30 18:15 52.67992 -2.30712 19636 ft 389 kts 175°
2026-04-30 18:16 52.63402 -2.28706 20670 ft 390 kts 153°
2026-04-30 18:16 52.58834 -2.23754 21716 ft 396 kts 147°
2026-04-30 18:17 52.56555 -2.21176 22219 ft 398 kts 147°
2026-04-30 18:17 52.54260 -2.18604 22737 ft 400 kts 147°
2026-04-30 18:17 52.49600 -2.13467 23701 ft 405 kts 147°
2026-04-30 18:18 52.47279 -2.10931 24089 ft 408 kts 147°
2026-04-30 18:18 52.44907 -2.08345 24483 ft 410 kts 147°
2026-04-30 18:18 52.42523 -2.05751 24838 ft 413 kts 147°
2026-04-30 18:18 52.40117 -2.03135 25194 ft 416 kts 147°
2026-04-30 18:19 52.37695 -2.00500 25544 ft 418 kts 147°
2026-04-30 18:19 52.35257 -1.97853 25899 ft 421 kts 147°
2026-04-30 18:19 52.32812 -1.95204 26225 ft 423 kts 147°
2026-04-30 18:19 52.30351 -1.92540 26555 ft 426 kts 147°
2026-04-30 18:20 52.27901 -1.89892 26877 ft 428 kts 147°
2026-04-30 18:20 52.25373 -1.87169 27193 ft 430 kts 148°
2026-04-30 18:20 52.22899 -1.84521 27494 ft 432 kts 148°
2026-04-30 18:20 52.20371 -1.81825 27796 ft 434 kts 148°
2026-04-30 18:21 52.17834 -1.79121 28115 ft 436 kts 148°
2026-04-30 18:21 52.15285 -1.76405 28436 ft 438 kts 148°
2026-04-30 18:21 52.12742 -1.73698 28866 ft 437 kts 148°
2026-04-30 18:21 52.10192 -1.70987 29379 ft 434 kts 148°
2026-04-30 18:22 52.07667 -1.68315 29834 ft 433 kts 148°
2026-04-30 18:22 52.02604 -1.63001 30557 ft 432 kts 148°
2026-04-30 18:22 52.00087 -1.60349 30878 ft 431 kts 148°
2026-04-30 18:23 51.97575 -1.57680 31204 ft 431 kts 148°
2026-04-30 18:23 51.95064 -1.55007 31503 ft 431 kts 148°
2026-04-30 18:23 51.92554 -1.52339 31852 ft 431 kts 148°
2026-04-30 18:23 51.90227 -1.49872 32186 ft 430 kts 148°
2026-04-30 18:24 51.85226 -1.44600 32838 ft 429 kts 148°
2026-04-30 18:24 51.82723 -1.41980 33154 ft 429 kts 148°
2026-04-30 18:24 51.80258 -1.39402 33471 ft 429 kts 148°
2026-04-30 18:25 51.77744 -1.36775 33770 ft 428 kts 148°
2026-04-30 18:25 51.72752 -1.31558 34344 ft 428 kts 148°
2026-04-30 18:25 51.70275 -1.28970 34546 ft 429 kts 148°
2026-04-30 18:26 51.65256 -1.23732 35003 ft 430 kts 148°
2026-04-30 18:26 51.62743 -1.21115 35161 ft 431 kts 148°
2026-04-30 18:27 51.55147 -1.13226 35150 ft 432 kts 148°
2026-04-30 18:28 51.47659 -1.05479 35159 ft 427 kts 148°
2026-04-30 18:28 51.40157 -0.97780 35156 ft 425 kts 148°
2026-04-30 18:29 51.30216 -0.87630 35188 ft 426 kts 148°
2026-04-30 18:30 51.20819 -0.78078 35189 ft 428 kts 148°
2026-04-30 18:31 51.13242 -0.70409 35176 ft 430 kts 148°
2026-04-30 18:32 51.05644 -0.62748 35170 ft 432 kts 148°
2026-04-30 18:33 50.98117 -0.54795 35156 ft 433 kts 146°
2026-04-30 18:33 50.90625 -0.46771 35154 ft 433 kts 147°
2026-04-30 18:34 50.83140 -0.38838 35160 ft 433 kts 147°
2026-04-30 18:35 50.78127 -0.33546 35154 ft 432 kts 147°
2026-04-30 18:35 50.73117 -0.28267 35158 ft 432 kts 147°
2026-04-30 18:36 50.65642 -0.20423 35156 ft 432 kts 147°
2026-04-30 18:37 50.58134 -0.12571 35149 ft 431 kts 147°
2026-04-30 18:37 50.53126 -0.07346 35146 ft 432 kts 147°
2026-04-30 18:38 50.48111 -0.02127 35141 ft 432 kts 147°
2026-04-30 18:38 50.43102 0.03073 35141 ft 432 kts 147°
2026-04-30 18:39 50.38118 0.08252 35140 ft 432 kts 147°
2026-04-30 18:39 50.33101 0.13458 35138 ft 432 kts 146°
2026-04-30 18:40 50.28080 0.18663 35140 ft 433 kts 147°
2026-04-30 18:40 50.23053 0.23864 35137 ft 433 kts 147°
2026-04-30 18:41 50.18014 0.29055 35136 ft 433 kts 147°
2026-04-30 18:41 50.13002 0.34196 35131 ft 434 kts 147°
2026-04-30 18:42 50.07949 0.39367 35129 ft 434 kts 147°
2026-04-30 18:42 50.00369 0.47104 35127 ft 435 kts 147°
2026-04-30 18:45 49.73432 0.77412 35129 ft 436 kts 141°
2026-04-30 18:46 49.68714 0.83338 35136 ft 437 kts 141°
2026-04-30 18:46 49.64013 0.89212 35143 ft 437 kts 141°
2026-04-30 18:47 49.59283 0.95105 35148 ft 437 kts 141°
2026-04-30 18:47 49.54553 1.00983 35153 ft 437 kts 141°
2026-04-30 18:48 49.49818 1.06855 35154 ft 437 kts 141°
2026-04-30 18:48 49.45078 1.12720 35156 ft 437 kts 141°
2026-04-30 18:49 49.40341 1.18563 35156 ft 437 kts 141°
2026-04-30 18:49 49.36390 1.23423 35159 ft 437 kts 141°
2026-04-30 18:50 49.31656 1.29237 35160 ft 437 kts 141°
2026-04-30 18:50 49.26905 1.35059 35156 ft 437 kts 141°
2026-04-30 18:51 49.22158 1.40863 35149 ft 437 kts 141°
2026-04-30 18:51 49.17438 1.46619 35148 ft 437 kts 141°
2026-04-30 18:52 49.12686 1.52400 35139 ft 437 kts 141°
2026-04-30 18:52 49.07925 1.58177 35146 ft 437 kts 141°
2026-04-30 18:53 49.03162 1.63941 35141 ft 437 kts 141°
2026-04-30 18:53 48.98398 1.69693 35147 ft 437 kts 141°
2026-04-30 18:54 48.93844 1.75178 35147 ft 437 kts 141°
2026-04-30 18:54 48.89071 1.80912 35146 ft 437 kts 141°
2026-04-30 18:55 48.84296 1.86634 35154 ft 437 kts 141°
2026-04-30 18:55 48.77171 1.95147 35155 ft 437 kts 141°
2026-04-30 18:56 48.69970 2.03719 35161 ft 438 kts 141°
2026-04-30 18:57 48.62767 2.12264 35155 ft 438 kts 141°
2026-04-30 18:57 48.57855 2.17708 35140 ft 438 kts 150°
2026-04-30 18:58 48.52205 2.21139 35142 ft 440 kts 165°
2026-04-30 18:58 48.49260 2.22223 35133 ft 440 kts 165°
2026-04-30 18:59 48.40324 2.25472 35120 ft 441 kts 165°
2026-04-30 19:00 48.28399 2.29962 35106 ft 442 kts 165°
2026-04-30 19:01 48.16509 2.34719 35109 ft 443 kts 163°
2026-04-30 19:02 48.07672 2.38655 35104 ft 443 kts 160°
2026-04-30 19:03 47.95996 2.44595 35103 ft 444 kts 160°
2026-04-30 19:04 47.84273 2.50415 35103 ft 444 kts 160°
2026-04-30 19:05 47.72551 2.56186 35103 ft 445 kts 161°
2026-04-30 19:06 47.60756 2.61969 35104 ft 447 kts 161°
2026-04-30 19:06 47.51895 2.66295 35107 ft 447 kts 161°
2026-04-30 19:07 47.43007 2.70619 35113 ft 448 kts 161°
2026-04-30 19:08 47.31182 2.76349 35112 ft 449 kts 161°
2026-04-30 19:09 47.22265 2.80653 35113 ft 449 kts 161°
2026-04-30 19:09 47.16307 2.83509 35113 ft 449 kts 161°
2026-04-30 19:10 47.04403 2.89194 35108 ft 450 kts 161°
2026-04-30 19:11 46.95509 2.93427 35105 ft 450 kts 161°
2026-04-30 19:12 46.89551 2.96254 35107 ft 450 kts 161°
2026-04-30 19:12 46.83595 2.99074 35110 ft 450 kts 161°
2026-04-30 19:13 46.71694 3.04690 35121 ft 449 kts 161°
2026-04-30 19:14 46.65739 3.07490 35123 ft 449 kts 161°
2026-04-30 19:14 46.59788 3.10283 35127 ft 449 kts 162°
2026-04-30 19:15 46.53887 3.13046 35127 ft 448 kts 161°
2026-04-30 19:15 46.45103 3.17704 35131 ft 448 kts 159°
2026-04-30 19:16 46.39275 3.20909 35130 ft 447 kts 159°
2026-04-30 19:17 46.30535 3.25623 35128 ft 447 kts 159°
2026-04-30 19:17 46.21778 3.30300 35129 ft 446 kts 160°
2026-04-30 19:18 46.13070 3.34937 35130 ft 446 kts 160°
2026-04-30 19:19 46.07245 3.38030 35132 ft 446 kts 160°
2026-04-30 19:19 45.98501 3.42662 35133 ft 446 kts 160°
2026-04-30 19:20 45.92672 3.45741 35141 ft 446 kts 160°
2026-04-30 19:21 45.83891 3.50252 35155 ft 446 kts 162°
2026-04-30 19:22 45.71976 3.55299 35159 ft 447 kts 164°
2026-04-30 19:23 45.54076 3.62940 35173 ft 450 kts 164°
2026-04-30 19:24 45.45032 3.66798 35182 ft 454 kts 164°
2026-04-30 19:25 45.29832 3.73278 35198 ft 458 kts 161°
2026-04-30 19:26 45.24496 3.78089 35207 ft 463 kts 135°
2026-04-30 19:26 45.20777 3.85565 35214 ft 466 kts 122°
2026-04-30 19:27 45.15624 3.97311 35211 ft 469 kts 123°
2026-04-30 19:28 45.10286 4.08951 35202 ft 470 kts 124°
2026-04-30 19:29 45.03098 4.24398 35199 ft 469 kts 129°
2026-04-30 19:30 44.94331 4.37914 35211 ft 468 kts 134°
2026-04-30 19:31 44.85476 4.51381 35204 ft 468 kts 134°
2026-04-30 19:31 44.78846 4.61496 35203 ft 469 kts 134°
2026-04-30 19:32 44.74403 4.68249 35200 ft 470 kts 134°
2026-04-30 19:32 44.69951 4.74999 35221 ft 470 kts 134°
2026-04-30 19:33 44.65484 4.81757 35219 ft 472 kts 134°
2026-04-30 19:33 44.61094 4.88533 35212 ft 473 kts 132°
2026-04-30 19:34 44.56758 4.95520 35216 ft 475 kts 132°
2026-04-30 19:35 44.50211 5.05973 35210 ft 472 kts 133°
2026-04-30 19:35 44.48082 5.09356 35194 ft 455 kts 132°
2026-04-30 19:35 44.46023 5.12638 35195 ft 440 kts 133°
2026-04-30 19:35 44.44039 5.15803 35197 ft 426 kts 133°
2026-04-30 19:36 44.42109 5.18880 35171 ft 413 kts 133°
2026-04-30 19:36 44.40236 5.21860 35029 ft 405 kts 133°
2026-04-30 19:36 44.37146 5.26726 34431 ft 401 kts 136°
2026-04-30 19:37 44.34337 5.30082 33677 ft 403 kts 144°
2026-04-30 19:37 44.32069 5.32477 32711 ft 415 kts 145°
2026-04-30 19:37 44.29721 5.34922 31522 ft 431 kts 144°
2026-04-30 19:37 44.27278 5.37497 30228 ft 449 kts 144°
2026-04-30 19:38 44.25595 5.39299 29762 ft 449 kts 143°
2026-04-30 19:38 44.23136 5.41959 29206 ft 444 kts 143°
2026-04-30 19:38 44.20722 5.44587 28712 ft 437 kts 143°
2026-04-30 19:38 44.18333 5.47187 28218 ft 433 kts 143°
2026-04-30 19:39 44.15986 5.49734 27735 ft 435 kts 143°
2026-04-30 19:39 44.13587 5.52331 27264 ft 437 kts 143°
2026-04-30 19:39 44.11191 5.54922 26765 ft 434 kts 143°
2026-04-30 19:39 44.08818 5.57487 26284 ft 429 kts 143°
2026-04-30 19:40 44.06475 5.60018 25819 ft 426 kts 143°
2026-04-30 19:40 44.04142 5.62536 25351 ft 422 kts 143°
2026-04-30 19:40 44.01830 5.65029 24888 ft 420 kts 142°
2026-04-30 19:40 43.99525 5.67512 24428 ft 418 kts 142°
2026-04-30 19:41 43.97239 5.69973 23964 ft 416 kts 142°
2026-04-30 19:41 43.94945 5.72439 23436 ft 415 kts 142°
2026-04-30 19:41 43.92671 5.74881 22932 ft 412 kts 142°
2026-04-30 19:41 43.90416 5.77302 22462 ft 409 kts 142°
2026-04-30 19:42 43.88175 5.79705 22008 ft 405 kts 142°
2026-04-30 19:42 43.85945 5.82093 21550 ft 403 kts 142°
2026-04-30 19:42 43.83734 5.84455 21105 ft 400 kts 143°
2026-04-30 19:42 43.81527 5.86809 20661 ft 398 kts 143°
2026-04-30 19:43 43.79361 5.89117 20228 ft 396 kts 143°
2026-04-30 19:43 43.77178 5.91442 19794 ft 395 kts 143°
2026-04-30 19:43 43.75003 5.93756 19352 ft 393 kts 143°
2026-04-30 19:44 43.70687 5.98344 18494 ft 390 kts 143°
2026-04-30 19:44 43.68535 6.00629 17989 ft 388 kts 142°
2026-04-30 19:44 43.66399 6.02895 17537 ft 385 kts 142°
2026-04-30 19:44 43.64281 6.05139 17090 ft 382 kts 142°
2026-04-30 19:45 43.62177 6.07367 16669 ft 379 kts 143°
2026-04-30 19:45 43.60179 6.09697 16217 ft 376 kts 131°
2026-04-30 19:45 43.58779 6.12721 15830 ft 381 kts 113°
2026-04-30 19:45 43.57784 6.16222 15435 ft 398 kts 110°
2026-04-30 19:46 43.56838 6.19793 14983 ft 397 kts 109°
2026-04-30 19:46 43.55891 6.23387 14544 ft 396 kts 110°
2026-04-30 19:46 43.54943 6.26927 14105 ft 390 kts 110°
2026-04-30 19:46 43.54004 6.30378 13634 ft 377 kts 110°
2026-04-30 19:47 43.53108 6.33631 13192 ft 360 kts 110°
2026-04-30 19:47 43.52516 6.35771 12921 ft 349 kts 110°
2026-04-30 19:47 43.51400 6.39796 12425 ft 330 kts 110°
2026-04-30 19:47 43.50577 6.42678 12069 ft 317 kts 115°
2026-04-30 19:48 43.49329 6.45121 11740 ft 309 kts 133°
2026-04-30 19:48 43.47844 6.47234 11419 ft 306 kts 134°
2026-04-30 19:48 43.46352 6.49326 11082 ft 305 kts 134°
2026-04-30 19:48 43.44875 6.51418 10749 ft 303 kts 134°
2026-04-30 19:49 43.43417 6.53504 10422 ft 302 kts 133°
2026-04-30 19:49 43.40529 6.57654 9732 ft 299 kts 133°
2026-04-30 19:49 43.39366 6.59968 9355 ft 295 kts 110°
2026-04-30 19:50 43.39023 6.62702 9061 ft 289 kts 87°
2026-04-30 19:50 43.39400 6.65398 8753 ft 285 kts 74°
2026-04-30 19:50 43.39954 6.68006 8427 ft 284 kts 73°
2026-04-30 19:50 43.40512 6.70551 8156 ft 280 kts 73°
2026-04-30 19:51 43.41071 6.73115 7826 ft 278 kts 73°
2026-04-30 19:51 43.41620 6.75662 7510 ft 276 kts 73°
2026-04-30 19:52 43.41926 6.77098 7337 ft 275 kts 73°
2026-04-30 19:52 43.42462 6.79619 7036 ft 273 kts 74°
2026-04-30 19:52 43.42990 6.82121 6733 ft 272 kts 74°
2026-04-30 19:52 43.43508 6.84581 6426 ft 270 kts 74°
2026-04-30 19:53 43.44025 6.87048 6106 ft 268 kts 74°
2026-04-30 19:53 43.44540 6.89506 5821 ft 266 kts 74°
2026-04-30 19:53 43.45047 6.91933 5408 ft 262 kts 74°
2026-04-30 19:53 43.45832 6.94136 5044 ft 255 kts 49°
2026-04-30 19:54 43.47106 6.95754 4864 ft 241 kts 44°
2026-04-30 19:54 43.48286 6.97264 4610 ft 232 kts 46°
2026-04-30 19:54 43.49439 6.98827 4311 ft 224 kts 47°
2026-04-30 19:54 43.50531 7.00329 4046 ft 220 kts 47°
2026-04-30 19:55 43.51590 7.01785 3750 ft 215 kts 47°
2026-04-30 19:55 43.52630 7.03211 3472 ft 207 kts 47°
2026-04-30 19:55 43.53630 7.04584 3192 ft 200 kts 47°
2026-04-30 19:55 43.54598 7.05914 2929 ft 192 kts 47°
2026-04-30 19:56 43.55526 7.07186 2670 ft 185 kts 47°
2026-04-30 19:56 43.56419 7.08411 2423 ft 177 kts 47°
2026-04-30 19:56 43.57259 7.09562 2199 ft 164 kts 47°
2026-04-30 19:56 43.58049 7.10645 1989 ft 156 kts 46°
2026-04-30 19:57 43.58803 7.11680 1790 ft 150 kts 46°
2026-04-30 19:57 43.59534 7.12682 1587 ft 147 kts 45°
2026-04-30 19:57 43.60249 7.13663 1381 ft 142 kts 45°
2026-04-30 19:57 43.60934 7.14601 1202 ft 136 kts 45°
2026-04-30 19:58 43.61598 7.15510 1043 ft 138 kts 44°
2026-04-30 19:58 43.62283 7.16447 863 ft 138 kts 44°
2026-04-30 19:58 43.62969 7.17400 682 ft 141 kts 44°
2026-04-30 19:58 43.63670 7.18324 489 ft 142 kts 44°
2026-04-30 19:59 43.64364 7.19283 310 ft 141 kts 45°
2026-04-30 19:59 43.65065 7.20251 118 ft 145 kts 45°
2026-04-30 19:59 43.66254 7.21881 20 ft 70 kts 44°
2026-04-30 20:00 43.66440 7.22132 20 ft 10 kts 31°
2026-04-30 20:00 43.66486 7.22118 19 ft 7 kts 328°
2026-04-30 20:00 43.66518 7.22079 20 ft 6 kts 314°
2026-04-30 20:00 43.66544 7.22041 20 ft 5 kts 312°
2026-04-30 20:01 43.66530 7.21940 20 ft 8 kts 226°
2026-04-30 20:01 43.66482 7.21872 20 ft 12 kts 225°
2026-04-30 20:01 43.66416 7.21780 20 ft 15 kts 225°
2026-04-30 20:02 43.66345 7.21578 21 ft 12 kts 311°
2026-04-30 20:02 43.66370 7.21481 20 ft 11 kts 261°
2026-04-30 20:03 43.66343 7.21255 23 ft 15 kts 261°
2026-04-30 20:03 43.66324 7.21099 20 ft 17 kts 260°
2026-04-30 20:03 43.66322 7.20934 20 ft 17 kts 266°
2026-04-30 20:03 43.66307 7.20800 20 ft 12 kts 253°
2026-04-30 20:04 43.66238 7.20768 20 ft 11 kts 171°
2026-04-30 20:04 43.66161 7.20785 21 ft 11 kts 171°
2026-04-30 20:04 43.66087 7.20802 20 ft 11 kts 171°
2026-04-30 20:05 43.65943 7.20824 20 ft 10 kts 186°
2026-04-30 20:05 43.65902 7.20794 21 ft 5 kts 250°
2026-04-30 20:05 43.65924 7.20705 20 ft 3 kts 292°
2026-04-30 20:06 43.65927 7.20692 20 ft 1 kts 292°
2026-04-30 20:06 43.65928 7.20691 20 ft 0 kts 292°